CO-58
1 28895U 05043F 09315.70712214 .00000039 00000-0 17719-4 0 4396
2 28895 098.0380 202.0196 0016892 246.1717 113.7713 14.59812517215257
FALCON
1 30776U 07006E 09315.93745764 .00000354 00000-0 28562-4 0 06995
2 30776 035.4348 282.9189 0000418 096.8023 263.2748 15.03362038147344
MAST
1 31126U 07012K 09315.69557862 -.00000004 00000-0 94757-5 0 7292
2 31126 097.9696 003.5977 0094733 181.3537 178.7423 14.53528900136465
CAPE1
1 31130U 07012P 09316.08638674 .00000158 00000-0 47236-4 0 7403
2 31130 097.9710 001.8281 0102612 186.7410 173.2414 14.52102425136156
COMPASS
1 32787U 08021E 09316.87821707 .00000312 00000-0 46356-4 0 5155
2 32787 097.9256 019.3078 0014741 269.7174 090.2350 14.81690392 83461
AAUSAT2
1 32788U 08021F 09315.82068403 .00000571 00000-0 79009-4 0 5097
2 32788 097.9266 018.3464 0014036 272.9722 086.9881 14.81819068 83311
DO-64
1 32789U 08021G 09316.17930082 .00000392 00000-0 56287-4 0 5249
2 32789 097.9316 018.9667 0014613 271.2205 088.7333 14.81848340 83360
CO-66
1 32791U 08021J 09316.19578811 .00000085 00000-0 17659-4 0 5050
2 32791 097.9276 018.6639 0015192 270.9144 089.0318 14.81506135 83321
RS-30
1 32953U 08025A 09316.04910034 .00000010 00000-0 00000 0 0 4510
2 32953 082.5017 164.6909 0018161 215.7828 144.2034 12.43003247 66761
TACSAT-3
1 35001U 09028A 09316.79775877 .00003337 00000-0 88091-4 0 1420
2 35001 040.4547 071.5755 0022783 190.0997 169.9362 15.39528408 27259
PHARMSAT
1 35002U 09028B 09316.45141526 .00003242 00000-0 83596-4 0 1365
2 35002 040.4680 072.6332 0025797 191.8307 168.2005 15.40254806 27204
HAWKSAT1
1 35003U 09028C 09315.66528578 .00006308 00000-0 15183-3 0 1434
2 35003 040.4604 076.2060 0025465 190.6189 169.4091 15.41272475 27106
CP6
1 35004U 09028D 09316.37326279 .00007491 00000-0 17834-3 0 1369
2 35004 040.4608 071.9023 0024830 195.8031 164.2031 15.41432580 27203
AEROCUB3
1 35005U 09028E 09316.72001073 .00006898 00000-0 16600-3 0 1394
2 35005 040.4727 070.3296 0025097 195.3429 164.6625 15.41188833 27250
DRAGNSAT
1 35690U 09038B 09316.19745205 .00048992 00000-0 19030-3 0 1030
2 35690 051.6390 259.6437 0006193 107.7606 252.4032 15.86613341 16587
POLLUX
1 35693U 09038E 09315.86516791 .00042022 00000-0 17277-3 0 1064
2 35693 051.6393 261.9400 0005526 074.5812 285.5876 15.85514762 16497
CASTOR
1 35694U 09038F 09316.13087104 .00020172 00000-0 96401-4 0 986
2 35694 051.6415 261.4970 0005567 072.0828 288.0751 15.82782397 16527
METEOR-M
1 35865U 09049A 09316.38940474 .00000176 00000-0 10000-3 0 525
2 35865 098.7914 006.3905 0001449 269.1993 090.8996 14.21827380 7911
STERKH-2
1 35866U 09049B 09316.37100179 .00000178 00000-0 10000-3 0 572
2 35866 098.7923 006.4223 0002391 272.1129 087.9766 14.22300318 7918
FREGAT-I
1 35867U 09049C 09316.45368876 .00002269 00000-0 10000-3 0 643
2 35867 097.3660 005.4709 0011781 092.5373 267.7116 15.22761220 8482
